Oklahoma City, OK

8:36 PM CST on November 21, 2017 (GMT -0600)
Will Rogers World

Weather History for KOKC - February, 2013

Change the Weather History Date:

Friday, February 15, 2013

  Actual Average Record
Temperature  
Mean Temperature 37 °F 44 °F  
Max Temperature 44 °F 55 °F 81 °F (1954)
Min Temperature 30 °F 33 °F 7 °F (1909)
Degree Days  
Heating Degree Days 28 21  
Month to date heating degree days 293 344  
Since 1 July heating degree days 2245 2497  
Moisture  
Dew Point 22 °F    
Average Humidity 53    
Maximum Humidity 75    
Minimum Humidity 30    
Precipitation  
Precipitation 0.01 in 0.05 in 0.93 in (1938)
Month to date precipitation 0.69 0.79  
Year to date precipitation 1.83 2.18  
Snow  
Snow T in 0.00 in 3.30 in (1951)
Month to date snowfall 2.3 0.9  
Since 1 July snowfall 3.7 6.2  
Snow Depth -    
Sea Level Pressure  
Sea Level Pressure 30.37 in    
Wind  
Wind Speed 12 mph (NNW)    
Max Wind Speed 23 mph    
Max Gust Speed 31 mph    
Visibility 9 miles    
Events Snow    
T = Trace of Precipitation, MM = Missing Value Source: NWS Daily Summary

Daily Weather History Graph

Daily Weather History Graph

Search for Another Location

Airport or City:

Trip Planner

Search our weather history database for the weather conditions in past years. The results will help you decide how hot, cold, wet, or windy it might be!

Date:

Astronomy

Feb. 15, 2013 Rise Set
Actual Time 7:16 AM CST 6:12 PM CST
Civil Twilight 6:50 AM CST 6:38 PM CST
Nautical Twilight 6:20 AM CST 7:08 PM CST
Astronomical Twilight 5:51 AM CST 7:38 PM CST
Moon 10:07 AM CST (2/15) 11:59 PM CST (2/15)
Length of Visible Light 11h 48m
Length of Day
10h 56m
Waxing Crescent, 30% of the Moon is Illuminated
Feb 15
Waxing Crescent
Feb 17
First Quarter
Feb 25
Full
Mar 4
Last Quarter
Mar 11
New

Hourly Weather History & Observations

Time (CST) Temp. Windchill Dew Point Humidity Pressure Visibility Wind Dir Wind Speed Gust Speed Precip Events Conditions
12:52 AM 42.1 °F 34.2 °F 34.0 °F 73% 30.24 in 10.0 mi North 16.1 mph - N/A   Mostly Cloudy
1:52 AM 42.1 °F 33.1 °F 34.0 °F 73% 30.27 in 10.0 mi North 20.7 mph 26.5 mph N/A   Overcast
2:52 AM 39.9 °F 30.8 °F 25.0 °F 55% 30.29 in 10.0 mi North 18.4 mph 25.3 mph N/A   Mostly Cloudy
3:52 AM 37.9 °F 28.5 °F 21.0 °F 51% 30.30 in 10.0 mi North 17.3 mph - N/A   Overcast
4:52 AM 36.0 °F 26.3 °F 23.0 °F 59% 30.32 in 10.0 mi North 16.1 mph 23.0 mph N/A   Overcast
5:52 AM 32.0 °F 21.6 °F 21.9 °F 66% 30.33 in 10.0 mi North 15.0 mph 21.9 mph N/A   Partly Cloudy
6:52 AM 30.0 °F 18.3 °F 21.0 °F 69% 30.35 in 10.0 mi North 17.3 mph - N/A   Scattered Clouds
7:52 AM 30.0 °F 19.5 °F 21.0 °F 69% 30.38 in 10.0 mi North 13.8 mph - N/A   Mostly Cloudy
8:52 AM 30.9 °F 21.7 °F 19.9 °F 64% 30.41 in 10.0 mi North 11.5 mph - N/A   Mostly Cloudy
9:52 AM 34.0 °F 24.6 °F 21.0 °F 59% 30.43 in 10.0 mi North 13.8 mph - N/A   Overcast
10:52 AM 37.0 °F 28.5 °F 19.0 °F 48% 30.43 in 10.0 mi North 13.8 mph - N/A   Overcast
11:52 AM 37.9 °F 30.5 °F 17.1 °F 43% 30.42 in 10.0 mi NNE 11.5 mph - N/A   Overcast
12:52 PM 39.9 °F 32.5 °F 18.0 °F 41% 30.41 in 10.0 mi North 12.7 mph - N/A   Mostly Cloudy
1:52 PM 41.0 °F 33.5 °F 17.1 °F 38% 30.38 in 10.0 mi NNW 13.8 mph - N/A   Mostly Cloudy
2:52 PM 43.0 °F 36.4 °F 15.1 °F 32% 30.37 in 10.0 mi NNW 12.7 mph 19.6 mph N/A   Scattered Clouds
3:52 PM 43.0 °F 36.4 °F 14.0 °F 31% 30.36 in 10.0 mi NNW 12.7 mph 18.4 mph N/A   Scattered Clouds
4:52 PM 41.0 °F 34.3 °F 15.1 °F 35% 30.37 in 10.0 mi NNW 11.5 mph - N/A   Mostly Cloudy
5:52 PM 39.9 °F 32.9 °F 17.1 °F 40% 30.37 in 10.0 mi NNW 11.5 mph - N/A   Mostly Cloudy
6:52 PM 37.4 °F 32.1 °F 19.4 °F 48% 30.35 in 10.0 mi NNW 6.9 mph - N/A   Mostly Cloudy
7:52 PM 37.0 °F - 19.0 °F 48% 30.37 in 10.0 mi Calm Calm - N/A   Scattered Clouds
8:52 PM 32.0 °F 28.7 °F 21.0 °F 64% 30.37 in 10.0 mi SW 3.5 mph - N/A   Mostly Cloudy
9:52 PM 34.0 °F 29.8 °F 21.9 °F 61% 30.39 in 10.0 mi West 4.6 mph - N/A   Overcast
10:27 PM 35.6 °F 26.2 °F 28.4 °F 75% 30.38 in 3.0 mi NW 15.0 mph - 0.00 in Snow Light Snow
10:47 PM 35.6 °F 28.6 °F 28.4 °F 75% 30.38 in 10.0 mi NW 9.2 mph - 0.00 in   Overcast
10:52 PM 36.0 °F 28.0 °F 28.0 °F 73% 30.40 in 10.0 mi NW 11.5 mph - 0.00 in   Overcast
11:06 PM 35.6 °F 28.6 °F 28.4 °F 75% 30.38 in 2.5 mi NNW 9.2 mph - 0.00 in Snow Light Snow
11:24 PM 33.8 °F 25.8 °F 30.2 °F 87% 30.38 in 4.0 mi North 10.4 mph - 0.00 in Snow Light Snow
11:52 PM 34.0 °F 25.5 °F 30.9 °F 89% 30.40 in 5.0 mi North 11.5 mph - N/A Snow Light Snow